Time,TemperatureF,DewpointF,PressureIn,WindDirection,WindDirectionDegrees,WindSpeedMPH,WindSpeedGustMPH,Humidity,HourlyPrecipIn,Conditions,Clouds,dailyrainin,SoftwareType,DateUTC
2013-05-08 00:00:00,56.3,56.3,29.95,NNW,331,0.0,0.0,100,0.00,,OVC060,0.00,VWS V14.01,2013-05-08 04:00:00,
2013-05-08 00:01:00,56.3,56.3,29.95,NNW,331,0.0,0.0,100,0.00,,OVC060,0.00,VWS V14.01,2013-05-08 04:01:00,
2013-05-08 00:03:00,56.3,56.3,29.95,NNW,331,0.0,0.0,100,0.00,,OVC060,0.00,VWS V14.01,2013-05-08 04:03:00,
2013-05-08 00:04:00,56.3,56.3,29.95,NNW,331,0.0,0.0,100,0.00,,OVC060,0.00,VWS V14.01,2013-05-08 04:04:00,
2013-05-08 00:06:00,56.1,56.1,29.95,NNW,331,0.0,0.0,100,0.00,,OVC060,0.00,VWS V14.01,2013-05-08 04:06:00,
2013-05-08 00:11:00,56.1,56.1,29.95,NNW,332,0.0,0.0,100,0.00,,OVC060,0.00,VWS V14.01,2013-05-08 04:11:00,
2013-05-08 00:16:00,55.9,55.9,29.95,NNW,331,0.0,0.0,100,0.00,,OVC060,0.00,VWS V14.01,2013-05-08 04:16:00,
2013-05-08 00:21:00,55.9,55.9,29.95,NNW,331,0.0,0.0,100,0.00,,OVC060,0.00,VWS V14.01,2013-05-08 04:21:00,
2013-05-08 00:26:00,55.9,55.9,29.95,NNW,332,0.0,0.0,100,0.00,,OVC060,0.00,VWS V14.01,2013-05-08 04:26:00,
2013-05-08 00:31:00,56.1,56.1,29.95,NNW,331,0.0,0.0,100,0.00,,OVC060,0.00,VWS V14.01,2013-05-08 04:31:00,
2013-05-08 00:36:00,56.1,56.1,29.95,NNW,331,0.0,0.0,100,0.00,,OVC060,0.00,VWS V14.01,2013-05-08 04:36:00,
2013-05-08 00:41:00,56.3,56.3,29.95,NNW,331,0.0,0.0,100,0.00,,OVC100,0.00,VWS V14.01,2013-05-08 04:41:00,
2013-05-08 00:46:00,56.3,56.3,29.95,NNW,331,0.0,0.0,100,0.00,,OVC100,0.00,VWS V14.01,2013-05-08 04:46:00,
2013-05-08 00:51:00,56.5,56.5,29.95,NNW,331,0.0,0.0,100,0.00,,OVC100,0.00,VWS V14.01,2013-05-08 04:51:00,
2013-05-08 00:56:00,56.5,56.5,29.95,NNW,331,0.0,0.0,100,0.00,,OVC100,0.00,VWS V14.01,2013-05-08 04:56:00,
2013-05-08 01:01:00,56.7,56.7,29.95,NNW,331,0.0,0.0,100,0.00,,OVC100,0.00,VWS V14.01,2013-05-08 05:01:00,
2013-05-08 01:06:00,56.7,56.7,29.95,NNW,331,0.0,0.0,100,0.00,,OVC100,0.00,VWS V14.01,2013-05-08 05:06:00,
2013-05-08 01:11:00,56.7,56.7,29.95,NNW,331,0.0,0.0,100,0.00,,OVC100,0.00,VWS V14.01,2013-05-08 05:11:00,
2013-05-08 01:16:00,56.7,56.7,29.95,NNW,331,0.0,0.0,100,0.00,,OVC100,0.00,VWS V14.01,2013-05-08 05:16:00,
2013-05-08 01:21:00,56.8,56.8,29.95,NNW,335,0.0,0.0,100,0.00,,OVC100,0.00,VWS V14.01,2013-05-08 05:21:00,
2013-05-08 01:26:00,56.8,56.8,29.95,NNW,336,4.4,5.6,100,0.00,,OVC100,0.00,VWS V14.01,2013-05-08 05:26:00,
2013-05-08 01:31:00,57.2,57.2,29.95,WNW,286,4.4,8.5,100,0.00,,OVC100,0.00,VWS V14.01,2013-05-08 05:31:00,
2013-05-08 01:36:00,57.7,57.7,29.95,WNW,284,4.4,7.5,100,0.00,,OVC100,0.00,VWS V14.01,2013-05-08 05:36:00,
2013-05-08 01:41:00,58.5,58.5,29.95,WNW,286,5.9,10.3,100,0.00,,BKN130,0.00,VWS V14.01,2013-05-08 05:41:00,
2013-05-08 01:46:00,58.8,58.8,29.95,WNW,285,6.6,8.5,100,0.00,,BKN130,0.00,VWS V14.01,2013-05-08 05:46:00,
2013-05-08 01:52:00,59.0,59.0,29.95,WNW,299,0.0,0.0,100,0.00,,BKN130,0.00,VWS V14.01,2013-05-08 05:52:00,
2013-05-08 01:57:00,58.8,58.8,29.95,NNE,23,0.0,0.0,100,0.00,,BKN130,0.00,VWS V14.01,2013-05-08 05:57:00,
2013-05-08 02:02:00,58.5,58.5,29.95,NNE,23,0.0,0.0,100,0.00,,BKN130,0.00,VWS V14.01,2013-05-08 06:02:00,
2013-05-08 02:07:00,57.9,57.9,29.95,NNE,21,0.0,0.0,100,0.00,,BKN130,0.63,VWS V14.01,2013-05-08 06:07:00,
2013-05-08 02:12:00,57.6,57.6,29.95,NNE,23,0.0,0.0,100,0.00,,BKN130,0.00,VWS V14.01,2013-05-08 06:12:00,
2013-05-08 02:17:00,57.4,57.4,29.95,NNE,23,0.0,0.0,100,0.00,,BKN130,0.00,VWS V14.01,2013-05-08 06:17:00,
2013-05-08 02:22:00,57.6,57.6,29.95,NNE,22,0.0,0.0,100,0.00,,BKN130,0.00,VWS V14.01,2013-05-08 06:22:00,
2013-05-08 02:27:00,57.7,57.7,29.95,NNE,22,0.0,0.0,100,0.00,,BKN130,0.00,VWS V14.01,2013-05-08 06:27:00,
2013-05-08 02:32:00,57.7,57.7,29.95,NNW,341,0.0,0.0,100,0.00,,BKN130,0.00,VWS V14.01,2013-05-08 06:32:00,
2013-05-08 02:37:00,57.7,57.7,29.95,NNW,341,0.0,0.0,100,0.00,,BKN130,0.00,VWS V14.01,2013-05-08 06:37:00,
2013-05-08 02:42:00,57.9,57.9,29.95,NNW,341,0.0,0.0,100,0.00,,OVC100,0.00,VWS V14.01,2013-05-08 06:42:00,
2013-05-08 02:47:00,58.1,58.1,29.95,NNW,341,0.0,0.0,100,0.00,,OVC100,0.00,VWS V14.01,2013-05-08 06:47:00,
2013-05-08 02:52:00,58.3,58.3,29.95,NNW,341,0.0,0.0,100,0.00,,OVC100,0.00,VWS V14.01,2013-05-08 06:52:00,
2013-05-08 02:57:00,58.3,58.3,29.95,NNW,341,0.0,0.0,100,0.00,,OVC100,0.00,VWS V14.01,2013-05-08 06:57:00,
2013-05-08 03:02:00,58.3,58.3,29.95,NNW,341,0.0,0.0,100,0.00,,OVC100,0.00,VWS V14.01,2013-05-08 07:02:00,
2013-05-08 03:07:00,58.3,58.3,29.95,NNW,341,0.0,0.0,100,0.00,,OVC100,0.00,VWS V14.01,2013-05-08 07:07:00,
2013-05-08 03:12:00,58.3,58.3,29.92,NNW,341,0.0,0.0,100,0.00,,OVC100,0.00,VWS V14.01,2013-05-08 07:12:00,
2013-05-08 03:17:00,58.1,58.1,29.92,NNW,341,0.0,0.0,100,0.00,,OVC100,0.00,VWS V14.01,2013-05-08 07:17:00,
2013-05-08 03:22:00,57.9,57.9,29.92,NNW,341,0.0,0.0,100,0.00,,OVC100,0.00,VWS V14.01,2013-05-08 07:22:00,
2013-05-08 03:27:00,57.7,57.7,29.92,NNW,341,0.0,0.0,100,0.00,,OVC100,0.00,VWS V14.01,2013-05-08 07:27:00,
2013-05-08 03:32:00,57.6,57.6,29.92,NNW,341,0.0,0.0,100,0.00,,OVC100,0.00,VWS V14.01,2013-05-08 07:32:00,
2013-05-08 03:38:00,57.6,57.6,29.92,NNW,341,0.0,0.0,100,0.00,,OVC100,0.00,VWS V14.01,2013-05-08 07:38:00,
2013-05-08 03:43:00,57.2,57.2,29.95,NNW,341,0.0,0.0,100,0.00,,OVC110,0.00,VWS V14.01,2013-05-08 07:43:00,
2013-05-08 03:48:00,57.0,57.0,29.95,NNW,341,0.0,0.0,100,0.00,,OVC110,0.00,VWS V14.01,2013-05-08 07:48:00,
2013-05-08 03:53:00,57.0,57.0,29.95,NNW,341,0.0,0.0,100,0.00,,OVC110,0.00,VWS V14.01,2013-05-08 07:53:00,
2013-05-08 03:58:00,56.8,56.8,29.95,NNW,341,0.0,0.0,100,0.00,,OVC110,0.00,VWS V14.01,2013-05-08 07:58:00,
2013-05-08 04:03:00,56.7,56.7,29.95,NNW,341,0.0,0.0,100,0.00,,OVC110,0.00,VWS V14.01,2013-05-08 08:03:00,
2013-05-08 04:08:00,56.5,56.5,29.95,NNW,341,0.0,0.0,100,0.00,,OVC110,0.00,VWS V14.01,2013-05-08 08:08:00,
2013-05-08 04:13:00,56.3,56.3,29.95,NNW,341,0.0,0.0,100,0.00,,OVC110,0.00,VWS V14.01,2013-05-08 08:13:00,
2013-05-08 04:18:00,55.9,55.9,29.95,NNW,341,0.0,0.0,100,0.00,,OVC110,0.00,VWS V14.01,2013-05-08 08:18:00,
2013-05-08 04:23:00,55.6,55.6,29.95,NNW,341,0.0,0.0,100,0.00,,OVC110,0.00,VWS V14.01,2013-05-08 08:23:00,
2013-05-08 04:28:00,55.4,55.4,29.95,NNW,341,0.0,0.0,100,0.00,,OVC110,0.00,VWS V14.01,2013-05-08 08:28:00,
2013-05-08 04:33:00,55.0,55.0,29.95,NNW,341,0.0,0.0,100,0.00,,OVC110,0.00,VWS V14.01,2013-05-08 08:33:00,
2013-05-08 04:38:00,54.9,54.9,29.95,NNW,341,0.0,0.0,100,0.00,,OVC110,0.00,VWS V14.01,2013-05-08 08:38:00,
2013-05-08 04:43:00,54.9,54.9,29.95,NNW,341,0.0,0.0,100,0.00,,OVC110,0.00,VWS V14.01,2013-05-08 08:43:00,
2013-05-08 04:48:00,54.7,54.7,29.95,NNW,341,0.0,0.0,100,0.00,,OVC110,0.00,VWS V14.01,2013-05-08 08:48:00,
2013-05-08 04:53:00,54.5,54.5,29.95,NNW,341,0.0,0.0,100,0.00,,OVC110,0.00,VWS V14.01,2013-05-08 08:53:00,
2013-05-08 04:58:00,54.5,54.5,29.95,NNW,341,0.0,0.0,100,0.00,,OVC110,0.00,VWS V14.01,2013-05-08 08:58:00,
2013-05-08 05:03:00,54.3,54.3,29.95,NNW,341,0.0,0.0,100,0.00,,OVC110,0.00,VWS V14.01,2013-05-08 09:03:00,
2013-05-08 05:08:00,54.3,54.3,29.95,NNW,341,0.0,0.0,100,0.00,,OVC110,0.00,VWS V14.01,2013-05-08 09:08:00,
2013-05-08 05:13:00,54.1,54.1,29.95,NNW,341,0.0,0.0,100,0.00,,OVC110,0.00,VWS V14.01,2013-05-08 09:13:00,
2013-05-08 05:19:00,54.0,54.0,29.95,NNW,341,0.0,0.0,100,0.00,,OVC110,0.00,VWS V14.01,2013-05-08 09:19:00,
2013-05-08 05:24:00,53.8,53.8,29.95,NNW,341,0.0,0.0,100,0.00,,OVC110,0.63,VWS V14.01,2013-05-08 09:24:00,
2013-05-08 05:29:00,53.8,53.8,29.95,NNW,341,0.0,0.0,100,0.00,,OVC110,0.00,VWS V14.01,2013-05-08 09:29:00,
2013-05-08 05:34:00,53.6,53.6,29.95,NNW,341,0.0,0.0,100,0.00,,OVC110,0.00,VWS V14.01,2013-05-08 09:34:00,
2013-05-08 05:39:00,53.4,53.4,29.95,NNW,341,0.0,0.0,100,0.00,,OVC110,0.00,VWS V14.01,2013-05-08 09:39:00,
2013-05-08 05:44:00,53.2,53.2,29.95,NNW,341,0.0,0.0,100,0.00,,OVC110,0.00,VWS V14.01,2013-05-08 09:44:00,
2013-05-08 05:49:00,53.4,53.4,29.95,NNW,341,0.0,0.0,100,0.00,,OVC110,0.00,VWS V14.01,2013-05-08 09:49:00,
2013-05-08 05:54:00,54.0,54.0,29.95,NNW,341,0.0,0.0,100,0.00,,OVC110,0.00,VWS V14.01,2013-05-08 09:54:00,
2013-05-08 05:59:00,54.1,54.1,29.95,NNW,341,0.0,0.0,100,0.00,,OVC110,0.00,VWS V14.01,2013-05-08 09:59:00,
2013-05-08 06:05:00,54.1,54.1,29.95,NNW,341,0.0,0.0,100,0.00,,OVC110,0.00,VWS V14.01,2013-05-08 10:05:00,
2013-05-08 06:10:00,54.1,54.1,29.95,NNW,341,0.0,0.0,100,0.00,,OVC110,0.00,VWS V14.01,2013-05-08 10:10:00,
2013-05-08 06:15:00,54.1,54.1,29.95,NNW,341,0.0,0.0,100,0.00,,OVC110,0.00,VWS V14.01,2013-05-08 10:15:00,
2013-05-08 06:20:00,54.1,54.1,29.95,NNW,341,0.0,0.0,100,0.00,,OVC110,0.00,VWS V14.01,2013-05-08 10:20:00,
2013-05-08 06:25:00,54.0,54.0,29.95,NNW,341,0.0,0.0,100,0.00,,OVC110,0.00,VWS V14.01,2013-05-08 10:25:00,
2013-05-08 06:30:00,53.8,53.8,29.95,NNW,341,0.0,0.0,100,0.00,,OVC110,0.00,VWS V14.01,2013-05-08 10:30:00,
2013-05-08 06:35:00,53.8,53.8,29.95,NNW,341,0.0,0.0,100,0.00,,OVC110,0.00,VWS V14.01,2013-05-08 10:35:00,
2013-05-08 06:40:00,53.6,53.6,29.95,NNW,343,0.0,0.0,100,0.00,,OVC110,0.00,VWS V14.01,2013-05-08 10:40:00,
2013-05-08 06:45:00,53.6,53.6,29.95,NNW,343,0.0,0.0,100,0.00,,OVC110,0.00,VWS V14.01,2013-05-08 10:45:00,
2013-05-08 06:50:00,53.6,53.6,29.95,NNW,343,0.0,0.0,100,0.00,,OVC110,0.00,VWS V14.01,2013-05-08 10:50:00,
2013-05-08 06:55:00,53.4,53.4,29.98,NNW,344,0.0,0.0,100,0.00,,OVC110,0.00,VWS V14.01,2013-05-08 10:55:00,
2013-05-08 07:00:00,53.4,53.4,29.98,NNW,342,0.0,0.0,100,0.00,,OVC110,0.00,VWS V14.01,2013-05-08 11:00:00,
2013-05-08 07:05:00,53.6,53.6,29.98,NNW,342,0.0,0.0,100,0.00,,OVC110,0.00,VWS V14.01,2013-05-08 11:05:00,
2013-05-08 07:10:00,53.6,53.6,29.98,NNW,342,0.0,0.0,100,0.00,,OVC110,0.00,VWS V14.01,2013-05-08 11:10:00,
2013-05-08 07:15:00,53.6,53.6,29.98,NNW,342,0.0,0.0,100,0.00,,OVC110,0.00,VWS V14.01,2013-05-08 11:15:00,
2013-05-08 07:20:00,53.4,53.4,29.98,NNW,342,0.0,0.0,100,0.00,,OVC110,0.00,VWS V14.01,2013-05-08 11:20:00,
2013-05-08 07:25:00,53.4,53.4,29.98,NNW,342,0.0,0.0,100,0.00,,OVC110,0.00,VWS V14.01,2013-05-08 11:25:00,
2013-05-08 07:30:00,53.6,53.6,29.98,NNW,342,0.0,0.0,100,0.00,,OVC110,0.00,VWS V14.01,2013-05-08 11:30:00,
2013-05-08 07:35:00,53.6,53.6,29.98,NNW,342,0.0,0.0,100,0.00,,BKN110,0.00,VWS V14.01,2013-05-08 11:35:00,
2013-05-08 07:41:00,53.8,53.8,29.98,NNW,342,0.0,0.0,100,0.00,,BKN110,0.00,VWS V14.01,2013-05-08 11:41:00,
2013-05-08 07:46:00,54.3,54.3,29.98,NNW,342,0.0,0.0,100,0.00,,BKN110,0.00,VWS V14.01,2013-05-08 11:46:00,
2013-05-08 07:51:00,55.0,55.0,29.98,NNW,342,0.0,0.0,100,0.00,,BKN110,0.00,VWS V14.01,2013-05-08 11:51:00,
2013-05-08 07:56:00,55.9,55.9,30.01,NNW,342,0.0,0.0,100,0.00,,BKN110,0.00,VWS V14.01,2013-05-08 11:56:00,
2013-05-08 08:01:00,57.4,57.4,30.01,NNW,342,0.0,0.0,100,0.00,,BKN110,0.00,VWS V14.01,2013-05-08 12:01:00,
2013-05-08 08:06:00,58.5,58.5,30.01,NNW,342,0.0,0.0,100,0.00,,BKN110,0.00,VWS V14.01,2013-05-08 12:06:00,
2013-05-08 08:11:00,59.4,59.4,30.01,NNW,342,0.0,0.0,100,0.00,,BKN110,0.00,VWS V14.01,2013-05-08 12:11:00,
2013-05-08 08:16:00,60.1,60.1,30.01,NNW,342,0.0,0.0,100,0.00,,BKN110,0.00,VWS V14.01,2013-05-08 12:16:00,
2013-05-08 08:21:00,60.6,60.6,30.01,NNW,342,0.0,0.0,100,0.00,,BKN110,0.00,VWS V14.01,2013-05-08 12:21:00,
2013-05-08 08:26:00,60.6,60.6,30.01,NNW,342,0.0,0.0,100,0.00,,BKN110,0.00,VWS V14.01,2013-05-08 12:26:00,
2013-05-08 08:31:00,61.2,61.2,30.01,NNW,342,0.0,0.0,100,0.00,,BKN110,0.00,VWS V14.01,2013-05-08 12:31:00,
2013-05-08 08:36:00,61.9,61.9,30.01,NNW,342,0.0,0.0,100,0.00,,SCT110,0.00,VWS V14.01,2013-05-08 12:36:00,
2013-05-08 08:41:00,62.6,62.6,30.01,NNW,342,0.0,0.0,100,0.00,,SCT110,0.00,VWS V14.01,2013-05-08 12:41:00,
2013-05-08 08:46:00,63.0,63.0,30.01,NNW,342,0.0,0.0,100,0.00,,SCT110,0.00,VWS V14.01,2013-05-08 12:46:00,
2013-05-08 08:51:00,63.3,63.3,30.01,NNW,342,0.0,0.0,100,0.00,,SCT110,0.00,VWS V14.01,2013-05-08 12:51:00,
2013-05-08 08:56:00,63.7,63.7,30.01,NNW,342,0.0,0.0,100,0.00,,SCT110,0.00,VWS V14.01,2013-05-08 12:56:00,
2013-05-08 09:01:00,64.2,64.2,30.01,NNW,343,0.0,0.0,100,0.00,,SCT110,0.00,VWS V14.01,2013-05-08 13:01:00,
2013-05-08 09:06:00,64.6,64.6,30.01,North,357,0.0,5.6,100,0.00,,SCT110,0.00,VWS V14.01,2013-05-08 13:06:00,
2013-05-08 09:11:00,64.9,64.9,30.01,NNE,29,0.0,7.5,100,0.00,,SCT110,0.00,VWS V14.01,2013-05-08 13:11:00,
2013-05-08 09:16:00,65.3,65.3,30.01,North,0,5.2,6.6,100,0.00,,SCT110,0.00,VWS V14.01,2013-05-08 13:16:00,
2013-05-08 09:22:00,65.5,65.5,30.01,ENE,58,6.6,8.5,100,0.00,,SCT110,0.00,VWS V14.01,2013-05-08 13:22:00,
2013-05-08 09:27:00,66.0,66.0,30.01,NNE,15,0.0,0.0,100,0.00,,SCT110,0.00,VWS V14.01,2013-05-08 13:27:00,
2013-05-08 09:32:00,66.2,66.2,30.01,NNE,23,0.0,0.0,100,0.00,,SCT110,0.00,VWS V14.01,2013-05-08 13:32:00,
2013-05-08 09:37:00,66.7,66.7,30.01,North,7,3.7,4.7,100,0.00,,SCT110,0.00,VWS V14.01,2013-05-08 13:37:00,
2013-05-08 09:42:00,67.3,63.2,30.01,North,0,0.0,0.0,87,0.00,,SCT110,0.00,VWS V14.01,2013-05-08 13:42:00,
2013-05-08 09:47:00,67.6,65.7,30.01,NNE,32,0.0,5.6,94,0.00,,SCT110,0.00,VWS V14.01,2013-05-08 13:47:00,
2013-05-08 09:52:00,68.4,66.9,30.01,NE,43,5.2,6.6,95,0.00,,SCT110,0.00,VWS V14.01,2013-05-08 13:52:00,
2013-05-08 09:57:00,68.5,63.3,30.01,North,353,4.4,5.6,83,0.00,,SCT110,0.00,VWS V14.01,2013-05-08 13:57:00,
2013-05-08 10:02:00,68.5,59.6,30.01,North,357,0.0,0.0,73,0.00,,SCT110,0.00,VWS V14.01,2013-05-08 14:02:00,
2013-05-08 10:07:00,69.1,61.4,30.01,North,357,3.7,4.7,76,0.00,,SCT110,0.00,VWS V14.01,2013-05-08 14:07:00,
2013-05-08 10:12:00,69.1,59.5,30.01,North,357,0.0,0.0,71,0.00,,SCT110,0.00,VWS V14.01,2013-05-08 14:12:00,
2013-05-08 10:17:00,69.4,61.7,30.01,North,357,4.4,5.6,76,0.00,,SCT110,0.00,VWS V14.01,2013-05-08 14:17:00,
2013-05-08 10:22:00,70.0,62.9,30.01,East,83,0.0,4.7,78,0.00,,SCT110,0.00,VWS V14.01,2013-05-08 14:22:00,
2013-05-08 10:27:00,70.5,60.8,30.01,North,357,3.7,6.6,71,0.00,,SCT110,0.00,VWS V14.01,2013-05-08 14:27:00,
2013-05-08 10:32:00,70.7,61.7,30.01,NNE,25,0.0,0.0,73,0.00,,SCT110,0.00,VWS V14.01,2013-05-08 14:32:00,
2013-05-08 10:37:00,70.9,60.5,30.01,ENE,65,0.0,4.7,70,0.00,,SCT250,0.00,VWS V14.01,2013-05-08 14:37:00,
2013-05-08 10:42:00,71.2,62.2,30.01,NE,54,0.0,6.6,73,0.00,,SCT250,0.00,VWS V14.01,2013-05-08 14:42:00,
2013-05-08 10:47:00,71.4,62.4,30.01,ENE,65,0.0,0.0,73,0.00,,SCT250,0.00,VWS V14.01,2013-05-08 14:47:00,
2013-05-08 10:53:00,71.1,62.0,30.01,NE,42,4.4,10.3,73,0.00,,SCT250,0.00,VWS V14.01,2013-05-08 14:53:00,
2013-05-08 10:58:00,71.4,62.4,30.01,ENE,64,0.0,0.0,73,0.00,,SCT250,0.00,VWS V14.01,2013-05-08 14:58:00,
2013-05-08 11:03:00,71.6,58.3,30.01,NW,315,5.2,6.6,63,0.00,,SCT250,0.00,VWS V14.01,2013-05-08 15:03:00,
2013-05-08 11:08:00,72.1,57.3,30.01,NW,322,4.4,5.6,60,0.00,,SCT250,0.00,VWS V14.01,2013-05-08 15:08:00,
2013-05-08 11:13:00,72.3,57.4,30.01,North,11,0.0,0.0,60,0.00,,SCT250,0.00,VWS V14.01,2013-05-08 15:13:00,
2013-05-08 11:18:00,72.1,58.8,30.01,NNE,29,4.4,6.6,63,0.00,,SCT250,0.00,VWS V14.01,2013-05-08 15:18:00,
2013-05-08 11:23:00,71.8,58.5,30.01,ENE,70,0.0,0.0,63,0.00,,SCT250,0.00,VWS V14.01,2013-05-08 15:23:00,
2013-05-08 11:28:00,71.8,57.7,30.01,NE,47,6.6,8.5,61,0.00,,SCT250,0.00,VWS V14.01,2013-05-08 15:28:00,
2013-05-08 11:33:00,72.1,58.0,30.01,ENE,74,0.0,0.0,61,0.00,,SCT250,0.00,VWS V14.01,2013-05-08 15:33:00,
2013-05-08 11:38:00,72.7,58.6,30.01,NNE,14,3.7,5.6,61,0.00,,BKN250,0.00,VWS V14.01,2013-05-08 15:38:00,
2013-05-08 11:43:00,72.9,57.1,30.01,North,8,3.7,4.7,58,0.00,,BKN250,0.00,VWS V14.01,2013-05-08 15:43:00,
2013-05-08 11:48:00,72.9,57.1,30.01,NE,49,4.4,7.5,58,0.00,,BKN250,0.00,VWS V14.01,2013-05-08 15:48:00,
2013-05-08 11:53:00,72.7,57.8,30.01,ENE,67,6.6,8.5,60,0.00,,BKN250,0.00,VWS V14.01,2013-05-08 15:53:00,
2013-05-08 11:58:00,73.0,56.5,30.01,North,357,5.9,7.5,56,0.00,,BKN250,0.00,VWS V14.01,2013-05-08 15:58:00,
2013-05-08 12:03:00,72.9,56.3,30.01,NW,305,4.4,7.5,56,0.00,,BKN250,0.00,VWS V14.01,2013-05-08 16:03:00,
2013-05-08 12:08:00,73.6,57.8,30.01,NE,46,7.4,13.2,58,0.00,,BKN250,0.00,VWS V14.01,2013-05-08 16:08:00,
2013-05-08 12:13:00,73.8,55.4,30.01,West,267,0.0,8.5,53,0.00,,BKN250,0.00,VWS V14.01,2013-05-08 16:13:00,
2013-05-08 12:18:00,73.6,56.1,30.01,ESE,111,5.9,7.5,54,0.00,,BKN250,0.00,VWS V14.01,2013-05-08 16:18:00,
2013-05-08 12:23:00,73.9,58.2,30.01,ENE,70,9.6,12.2,58,0.00,,BKN250,0.00,VWS V14.01,2013-05-08 16:23:00,
2013-05-08 12:28:00,74.3,58.5,30.01,ESE,111,6.6,11.3,58,0.00,,BKN250,0.00,VWS V14.01,2013-05-08 16:28:00,
2013-05-08 12:33:00,74.7,58.0,30.01,East,90,0.0,8.5,56,0.00,,BKN250,0.00,VWS V14.01,2013-05-08 16:33:00,
2013-05-08 12:39:00,74.5,57.8,30.01,SSE,156,3.7,7.5,56,0.00,,BKN110,0.00,VWS V14.01,2013-05-08 16:39:00,
2013-05-08 12:44:00,74.3,55.9,30.01,WNW,290,4.4,6.6,53,0.00,,BKN110,0.00,VWS V14.01,2013-05-08 16:44:00,
2013-05-08 12:49:00,73.9,55.6,30.01,NNW,329,5.9,7.5,53,0.00,,BKN110,0.00,VWS V14.01,2013-05-08 16:49:00,
2013-05-08 12:54:00,74.3,55.9,30.01,NW,317,6.6,8.5,53,0.00,,BKN110,0.00,VWS V14.01,2013-05-08 16:54:00,
2013-05-08 12:59:00,74.7,56.3,30.01,North,0,6.6,8.5,53,0.00,,BKN110,0.00,VWS V14.01,2013-05-08 16:59:00,
2013-05-08 13:04:00,75.2,55.8,30.01,North,357,9.6,12.2,51,0.00,,BKN110,0.00,VWS V14.01,2013-05-08 17:04:00,
2013-05-08 13:09:00,75.4,56.0,30.01,East,98,4.4,6.6,51,0.00,,BKN110,0.00,VWS V14.01,2013-05-08 17:09:00,
2013-05-08 13:14:00,75.4,56.9,30.01,NNE,15,4.4,5.6,53,0.00,,BKN110,0.00,VWS V14.01,2013-05-08 17:14:00,
2013-05-08 13:19:00,75.9,55.6,30.01,NNW,333,8.9,13.2,49,0.00,,BKN110,0.00,VWS V14.01,2013-05-08 17:19:00,
2013-05-08 13:24:00,75.4,53.1,30.01,North,0,5.2,6.6,46,0.00,,BKN110,0.00,VWS V14.01,2013-05-08 17:24:00,
2013-05-08 13:29:00,75.7,53.5,30.01,WNW,285,0.0,4.7,46,0.00,,BKN110,0.00,VWS V14.01,2013-05-08 17:29:00,
2013-05-08 13:34:00,75.9,55.6,30.01,North,0,4.4,8.5,49,0.00,,BKN110,0.00,VWS V14.01,2013-05-08 17:34:00,
2013-05-08 13:39:00,76.3,55.9,30.01,ENE,61,4.4,5.6,49,0.00,,SCT110,0.00,VWS V14.01,2013-05-08 17:39:00,
2013-05-08 13:44:00,75.6,54.3,30.01,West,277,8.1,10.3,48,0.00,,SCT110,0.00,VWS V14.01,2013-05-08 17:44:00,
2013-05-08 13:49:00,76.1,52.8,30.01,NW,317,5.9,8.5,44,0.00,,SCT110,0.00,VWS V14.01,2013-05-08 17:49:00,
2013-05-08 13:54:00,75.9,53.6,30.01,WNW,287,11.1,14.1,46,0.00,,BKN300,0.00,VWS V14.01,2013-05-08 17:54:00,
2013-05-08 13:59:00,76.3,54.9,30.01,WSW,252,4.4,5.6,48,0.00,,BKN300,0.00,VWS V14.01,2013-05-08 17:59:00,
2013-05-08 14:04:00,76.8,54.4,30.01,WNW,301,10.3,13.2,46,0.00,,SCT110,0.00,VWS V14.01,2013-05-08 18:04:00,
2013-05-08 14:09:00,76.6,54.3,29.98,NNE,26,0.0,6.6,46,0.00,,SCT110,0.00,VWS V14.01,2013-05-08 18:09:00,
2013-05-08 14:14:00,77.5,53.0,29.98,NW,310,5.2,6.6,42,0.00,,SCT110,0.00,VWS V14.01,2013-05-08 18:14:00,
2013-05-08 14:20:00,77.4,52.8,29.98,NW,317,8.1,11.3,42,0.00,,SCT110,0.00,VWS V14.01,2013-05-08 18:20:00,
2013-05-08 14:25:00,77.5,54.0,29.98,North,0,4.4,8.5,44,0.00,,SCT110,0.00,VWS V14.01,2013-05-08 18:25:00,
2013-05-08 14:30:00,77.4,54.9,29.98,NNW,344,8.1,13.2,46,0.00,,SCT110,0.00,VWS V14.01,2013-05-08 18:30:00,
2013-05-08 14:35:00,77.2,52.7,29.98,NNE,28,6.6,8.5,42,0.00,,SCT110,0.00,VWS V14.01,2013-05-08 18:35:00,
2013-05-08 14:40:00,76.6,52.2,29.98,NNW,329,5.2,6.6,42,0.00,,BKN100,0.00,VWS V14.01,2013-05-08 18:40:00,
2013-05-08 14:45:00,77.2,52.7,29.98,NE,38,5.9,7.5,42,0.00,,BKN100,0.00,VWS V14.01,2013-05-08 18:45:00,
2013-05-08 14:50:00,77.0,51.4,29.98,NW,321,5.2,8.5,41,0.00,,BKN100,0.00,VWS V14.01,2013-05-08 18:50:00,
2013-05-08 14:55:00,77.0,51.4,29.98,NNW,335,0.0,0.0,41,0.00,,BKN100,0.00,VWS V14.01,2013-05-08 18:55:00,
2013-05-08 15:00:00,76.6,52.2,29.98,North,3,5.9,8.5,42,0.00,,BKN100,0.00,VWS V14.01,2013-05-08 19:00:00,
2013-05-08 15:05:00,76.3,51.8,29.98,North,353,3.7,7.5,42,0.00,,BKN100,0.00,VWS V14.01,2013-05-08 19:05:00,
2013-05-08 15:10:00,75.9,52.6,29.98,North,353,5.2,6.6,44,0.00,,BKN100,0.00,VWS V14.01,2013-05-08 19:10:00,
2013-05-08 15:15:00,77.0,52.5,29.98,NW,323,9.6,12.2,42,0.00,,BKN100,0.00,VWS V14.01,2013-05-08 19:15:00,
2013-05-08 15:20:00,76.6,53.2,29.98,WNW,297,5.9,7.5,44,0.00,,BKN100,0.00,VWS V14.01,2013-05-08 19:20:00,
2013-05-08 15:25:00,77.0,53.6,29.98,West,277,5.2,11.3,44,0.00,,BKN100,0.00,VWS V14.01,2013-05-08 19:25:00,
2013-05-08 15:30:00,77.2,54.8,29.98,NW,314,5.2,13.2,46,0.00,,BKN100,0.00,VWS V14.01,2013-05-08 19:30:00,
2013-05-08 15:35:00,77.7,55.2,29.98,WNW,283,8.9,11.3,46,0.00,,BKN140,0.00,VWS V14.01,2013-05-08 19:35:00,
2013-05-08 15:40:00,76.8,52.3,29.98,NW,323,13.3,16.9,42,0.00,,BKN140,0.00,VWS V14.01,2013-05-08 19:40:00,
2013-05-08 15:46:00,76.8,53.4,29.98,NNW,335,4.4,11.3,44,0.00,,BKN140,0.00,VWS V14.01,2013-05-08 19:46:00,
2013-05-08 15:51:00,76.6,54.3,29.98,WNW,298,5.9,8.5,46,0.00,,BKN140,0.00,VWS V14.01,2013-05-08 19:51:00,
2013-05-08 15:56:00,76.5,54.1,29.98,North,353,8.9,11.3,46,0.00,,BKN140,0.00,VWS V14.01,2013-05-08 19:56:00,
2013-05-08 16:01:00,76.3,53.9,29.98,NE,36,5.2,6.6,46,0.00,,BKN140,0.00,VWS V14.01,2013-05-08 20:01:00,
2013-05-08 16:06:00,76.6,54.3,29.98,North,357,6.6,13.2,46,0.00,,BKN140,0.00,VWS V14.01,2013-05-08 20:06:00,
2013-05-08 16:11:00,76.6,53.2,29.98,NNW,348,5.9,7.5,44,0.00,,BKN140,0.00,VWS V14.01,2013-05-08 20:11:00,
2013-05-08 16:16:00,76.8,52.3,29.98,NNW,334,4.4,5.6,42,0.00,,BKN140,0.00,VWS V14.01,2013-05-08 20:16:00,
2013-05-08 16:21:00,77.0,53.6,29.98,WNW,293,0.0,5.6,44,0.00,,BKN140,0.00,VWS V14.01,2013-05-08 20:21:00,
2013-05-08 16:26:00,76.6,55.3,29.98,North,357,9.6,13.2,48,0.00,,BKN140,0.00,VWS V14.01,2013-05-08 20:26:00,
2013-05-08 16:31:00,76.6,54.3,29.98,North,357,3.7,7.5,46,0.00,,BKN140,0.00,VWS V14.01,2013-05-08 20:31:00,
2013-05-08 16:36:00,76.8,53.4,29.98,WNW,286,6.6,8.5,44,0.00,,BKN250,0.00,VWS V14.01,2013-05-08 20:36:00,
2013-05-08 16:41:00,77.2,54.8,29.98,WNW,297,8.9,11.3,46,0.00,,BKN250,0.00,VWS V14.01,2013-05-08 20:41:00,
2013-05-08 16:46:00,77.9,54.4,29.98,North,0,9.6,12.2,44,0.00,,BKN250,0.00,VWS V14.01,2013-05-08 20:46:00,
2013-05-08 16:51:00,77.5,56.1,29.98,WNW,303,5.9,12.2,48,0.00,,BKN250,0.00,VWS V14.01,2013-05-08 20:51:00,
2013-05-08 16:56:00,78.1,54.5,29.95,North,353,5.9,11.3,44,0.00,,BKN250,0.00,VWS V14.01,2013-05-08 20:56:00,
2013-05-08 17:01:00,76.6,54.3,29.95,NNW,345,6.6,10.3,46,0.00,,BKN250,0.00,VWS V14.01,2013-05-08 21:01:00,
2013-05-08 17:06:00,76.3,53.9,29.95,North,1,5.9,12.2,46,0.00,,BKN250,0.00,VWS V14.01,2013-05-08 21:06:00,
2013-05-08 17:12:00,75.7,54.5,29.95,NNW,329,6.6,8.5,48,0.00,,BKN250,0.00,VWS V14.01,2013-05-08 21:12:00,
2013-05-08 17:17:00,75.7,54.5,29.95,NNW,330,3.7,6.6,48,0.00,,BKN250,0.00,VWS V14.01,2013-05-08 21:17:00,
2013-05-08 17:22:00,75.4,54.1,29.95,NNW,332,4.4,5.6,48,0.00,,BKN250,0.00,VWS V14.01,2013-05-08 21:22:00,
2013-05-08 17:27:00,75.6,55.2,29.95,NNW,331,5.2,8.5,49,0.00,,BKN250,0.00,VWS V14.01,2013-05-08 21:27:00,
2013-05-08 17:32:00,74.5,55.2,29.95,North,350,6.6,8.5,51,0.00,,BKN250,0.00,VWS V14.01,2013-05-08 21:32:00,
2013-05-08 17:37:00,74.1,55.8,29.95,NNW,332,4.4,6.6,53,0.00,,BKN250,0.00,VWS V14.01,2013-05-08 21:37:00,
2013-05-08 17:42:00,74.1,56.6,29.98,West,260,10.3,13.2,54,0.00,,BKN250,0.00,VWS V14.01,2013-05-08 21:42:00,
2013-05-08 17:47:00,72.1,58.0,29.98,NW,305,5.9,10.3,61,0.00,,BKN250,0.00,VWS V14.01,2013-05-08 21:47:00,
2013-05-08 17:52:00,72.0,57.9,29.98,NW,319,9.6,18.3,61,0.00,,BKN250,0.00,VWS V14.01,2013-05-08 21:52:00,
2013-05-08 17:57:00,70.0,59.0,29.98,WNW,288,13.3,23.0,68,0.00,,BKN250,0.00,VWS V14.01,2013-05-08 21:57:00,
2013-05-08 18:02:00,70.3,61.3,29.98,WNW,300,13.3,16.9,73,0.00,,BKN250,0.00,VWS V14.01,2013-05-08 22:02:00,
2013-05-08 18:07:00,68.9,61.8,29.98,WNW,293,5.9,7.5,78,0.00,,BKN250,0.00,VWS V14.01,2013-05-08 22:07:00,
2013-05-08 18:12:00,67.8,60.8,29.95,WNW,294,0.0,0.0,78,0.00,,BKN250,0.00,VWS V14.01,2013-05-08 22:12:00,
2013-05-08 18:17:00,67.1,61.3,29.95,North,353,0.0,4.7,82,0.00,,BKN250,0.00,VWS V14.01,2013-05-08 22:17:00,
2013-05-08 18:23:00,66.9,61.1,29.95,NNW,340,0.0,6.6,82,0.00,,BKN250,0.00,VWS V14.01,2013-05-08 22:23:00,
2013-05-08 18:28:00,66.9,61.7,29.98,NNW,330,0.0,0.0,83,0.00,,BKN250,0.00,VWS V14.01,2013-05-08 22:28:00,
2013-05-08 18:33:00,67.3,65.3,29.98,NNW,330,0.0,0.0,94,0.00,,BKN250,0.00,VWS V14.01,2013-05-08 22:33:00,
2013-05-08 18:38:00,67.8,67.8,29.98,NNW,330,0.0,0.0,100,0.00,,BKN250,0.00,VWS V14.01,2013-05-08 22:38:00,
2013-05-08 18:43:00,68.0,68.0,29.98,NNW,330,0.0,0.0,100,0.00,,BKN250,0.00,VWS V14.01,2013-05-08 22:43:00,
2013-05-08 18:48:00,68.4,68.4,29.98,NNW,343,0.0,6.6,100,0.00,,BKN250,0.00,VWS V14.01,2013-05-08 22:48:00,
2013-05-08 18:53:00,68.7,68.3,29.98,NNW,343,0.0,0.0,99,0.00,,BKN250,0.00,VWS V14.01,2013-05-08 22:53:00,
2013-05-08 18:58:00,69.3,68.8,29.98,NNW,344,0.0,0.0,99,0.00,,BKN250,0.00,VWS V14.01,2013-05-08 22:58:00,
2013-05-08 19:03:00,69.6,69.6,29.98,NNW,343,0.0,0.0,100,0.00,,BKN250,0.00,VWS V14.01,2013-05-08 23:03:00,
2013-05-08 19:08:00,69.8,69.8,29.98,NNW,343,0.0,0.0,100,0.00,,BKN250,0.00,VWS V14.01,2013-05-08 23:08:00,
2013-05-08 19:13:00,70.0,70.0,29.98,NNW,342,0.0,0.0,100,0.00,,BKN250,0.00,VWS V14.01,2013-05-08 23:13:00,
2013-05-08 19:18:00,70.2,70.2,29.98,NNW,346,0.0,0.0,100,0.00,,BKN250,0.00,VWS V14.01,2013-05-08 23:18:00,
2013-05-08 19:23:00,70.3,70.3,29.98,NNW,344,0.0,0.0,100,0.00,,BKN250,0.00,VWS V14.01,2013-05-08 23:23:00,
2013-05-08 19:29:00,70.3,70.3,29.98,NNW,343,0.0,0.0,100,0.00,,BKN250,0.00,VWS V14.01,2013-05-08 23:29:00,
2013-05-08 19:34:00,70.5,70.5,29.98,NNW,343,0.0,0.0,100,0.00,,BKN250,0.00,VWS V14.01,2013-05-08 23:34:00,
2013-05-08 19:39:00,70.5,70.5,29.98,NNW,343,0.0,0.0,100,0.00,,BKN250,0.00,VWS V14.01,2013-05-08 23:39:00,
2013-05-08 19:44:00,70.3,70.3,29.98,NNW,343,0.0,0.0,100,0.00,,BKN250,0.00,VWS V14.01,2013-05-08 23:44:00,
2013-05-08 19:49:00,70.0,70.0,29.98,NNW,343,0.0,0.0,100,0.00,,BKN250,0.00,VWS V14.01,2013-05-08 23:49:00,
2013-05-08 19:54:00,69.8,69.8,29.98,NNW,343,0.0,0.0,100,0.00,,BKN250,0.00,VWS V14.01,2013-05-08 23:54:00,
2013-05-08 19:59:00,69.4,69.4,29.98,NNW,343,0.0,0.0,100,0.00,,BKN250,0.00,VWS V14.01,2013-05-08 23:59:00,
2013-05-08 20:04:00,69.1,69.1,29.98,NNW,343,0.0,0.0,100,0.00,,BKN250,0.00,VWS V14.01,2013-05-09 00:04:00,
2013-05-08 20:09:00,68.9,68.9,29.98,NNW,343,0.0,0.0,100,0.00,,BKN250,0.00,VWS V14.01,2013-05-09 00:09:00,
2013-05-08 20:14:00,68.7,68.7,29.98,NNW,343,0.0,0.0,100,0.00,,BKN250,0.00,VWS V14.01,2013-05-09 00:14:00,
2013-05-08 20:19:00,68.4,68.4,29.98,NNW,343,0.0,0.0,100,0.00,,BKN250,0.00,VWS V14.01,2013-05-09 00:19:00,
2013-05-08 20:24:00,68.2,68.2,29.98,NNW,343,0.0,0.0,100,0.00,,BKN250,0.00,VWS V14.01,2013-05-09 00:24:00,
2013-05-08 20:29:00,67.8,67.8,29.98,NNW,343,0.0,0.0,100,0.00,,BKN250,0.00,VWS V14.01,2013-05-09 00:29:00,
2013-05-08 20:35:00,67.5,67.5,29.98,NNW,343,0.0,0.0,100,0.00,,BKN250,0.00,VWS V14.01,2013-05-09 00:35:00,
2013-05-08 20:40:00,66.9,66.9,29.98,NNW,343,0.0,0.0,100,0.00,,BKN250,0.00,VWS V14.01,2013-05-09 00:40:00,
2013-05-08 20:45:00,66.7,66.7,29.98,NNW,342,0.0,0.0,100,0.00,,BKN250,0.00,VWS V14.01,2013-05-09 00:45:00,
2013-05-08 20:50:00,66.6,66.6,29.98,NNW,343,0.0,0.0,100,0.00,,BKN250,0.00,VWS V14.01,2013-05-09 00:50:00,
2013-05-08 20:55:00,66.4,66.4,29.98,NNW,343,0.0,0.0,100,0.00,,BKN250,0.00,VWS V14.01,2013-05-09 00:55:00,
2013-05-08 21:00:00,66.0,66.0,29.98,NNW,343,0.0,0.0,100,0.00,,BKN250,0.00,VWS V14.01,2013-05-09 01:00:00,
2013-05-08 21:05:00,65.7,65.7,29.98,NNW,343,0.0,0.0,100,0.00,,BKN250,0.00,VWS V14.01,2013-05-09 01:05:00,
2013-05-08 21:10:00,65.1,65.1,29.98,NNW,343,0.0,0.0,100,0.00,,BKN250,0.00,VWS V14.01,2013-05-09 01:10:00,
2013-05-08 21:15:00,64.8,64.8,29.98,NNW,343,0.0,0.0,100,0.00,,BKN250,0.00,VWS V14.01,2013-05-09 01:15:00,
2013-05-08 21:20:00,64.6,64.6,29.98,NNW,343,0.0,0.0,100,0.00,,BKN250,0.00,VWS V14.01,2013-05-09 01:20:00,
2013-05-08 21:25:00,64.2,64.2,29.98,NNW,343,0.0,0.0,100,0.00,,BKN250,0.00,VWS V14.01,2013-05-09 01:25:00,
2013-05-08 21:30:00,64.0,64.0,29.98,NNW,343,0.0,0.0,100,0.00,,BKN250,0.00,VWS V14.01,2013-05-09 01:30:00,
2013-05-08 21:35:00,63.9,63.9,29.98,NNW,343,0.0,0.0,100,0.00,,BKN250,0.00,VWS V14.01,2013-05-09 01:35:00,
2013-05-08 21:40:00,63.5,63.5,29.98,NNW,343,0.0,0.0,100,0.00,,BKN250,0.00,VWS V14.01,2013-05-09 01:40:00,
2013-05-08 21:45:00,63.5,63.5,29.98,NNW,343,0.0,0.0,100,0.00,,BKN250,0.00,VWS V14.01,2013-05-09 01:45:00,
2013-05-08 21:51:00,63.5,63.5,29.98,NNW,343,0.0,0.0,100,0.00,,BKN250,0.00,VWS V14.01,2013-05-09 01:51:00,
2013-05-08 21:56:00,63.5,63.5,29.98,NNW,343,0.0,0.0,100,0.00,,BKN250,0.00,VWS V14.01,2013-05-09 01:56:00,
2013-05-08 22:01:00,63.3,63.3,29.98,NNW,343,0.0,0.0,100,0.00,,BKN250,0.00,VWS V14.01,2013-05-09 02:01:00,
2013-05-08 22:06:00,63.1,63.1,29.98,NNW,343,0.0,0.0,100,0.00,,BKN250,0.00,VWS V14.01,2013-05-09 02:06:00,
2013-05-08 22:11:00,63.0,63.0,30.01,NNW,343,0.0,0.0,100,0.00,,BKN250,0.00,VWS V14.01,2013-05-09 02:11:00,
2013-05-08 22:16:00,63.0,63.0,30.01,NNW,342,0.0,0.0,100,0.00,,BKN250,0.00,VWS V14.01,2013-05-09 02:16:00,
2013-05-08 22:21:00,62.8,62.8,30.01,NNW,343,0.0,0.0,100,0.00,,BKN250,0.00,VWS V14.01,2013-05-09 02:21:00,
2013-05-08 22:26:00,62.8,62.8,30.01,NNW,343,0.0,0.0,100,0.00,,BKN250,0.00,VWS V14.01,2013-05-09 02:26:00,
2013-05-08 22:31:00,62.8,62.8,30.01,NNW,343,0.0,0.0,100,0.00,,BKN250,0.00,VWS V14.01,2013-05-09 02:31:00,
2013-05-08 22:36:00,62.8,62.8,30.01,NNW,343,0.0,0.0,100,0.00,,BKN250,0.00,VWS V14.01,2013-05-09 02:36:00,
2013-05-08 22:41:00,62.6,62.6,30.01,NNW,343,0.0,0.0,100,0.00,,BKN250,0.00,VWS V14.01,2013-05-09 02:41:00,
2013-05-08 22:46:00,62.2,62.2,30.01,SW,214,0.0,5.6,100,0.00,,BKN250,0.00,VWS V14.01,2013-05-09 02:46:00,
2013-05-08 22:51:00,62.2,62.2,30.01,SW,214,0.0,0.0,100,0.00,,BKN250,0.00,VWS V14.01,2013-05-09 02:51:00,
2013-05-08 22:57:00,62.2,62.2,30.01,SW,214,0.0,0.0,100,0.00,,BKN250,0.00,VWS V14.01,2013-05-09 02:57:00,
2013-05-08 23:02:00,62.2,62.2,30.01,SW,214,0.0,0.0,100,0.00,,BKN250,0.00,VWS V14.01,2013-05-09 03:02:00,
2013-05-08 23:07:00,62.1,62.1,30.01,SW,214,0.0,0.0,100,0.00,,BKN250,0.00,VWS V14.01,2013-05-09 03:07:00,
2013-05-08 23:12:00,61.9,61.9,30.01,SW,214,0.0,0.0,100,0.00,,BKN250,0.00,VWS V14.01,2013-05-09 03:12:00,
2013-05-08 23:17:00,61.9,61.9,30.01,SW,214,0.0,0.0,100,0.00,,BKN250,0.00,VWS V14.01,2013-05-09 03:17:00,
2013-05-08 23:22:00,61.7,61.7,30.01,SW,214,0.0,0.0,100,0.00,,BKN250,0.00,VWS V14.01,2013-05-09 03:22:00,
2013-05-08 23:27:00,61.7,61.7,30.01,SW,214,0.0,0.0,100,0.00,,BKN250,0.00,VWS V14.01,2013-05-09 03:27:00,
2013-05-08 23:32:00,61.7,61.7,30.01,SW,214,0.0,0.0,100,0.00,,BKN250,0.00,VWS V14.01,2013-05-09 03:32:00,
2013-05-08 23:37:00,61.5,61.5,30.01,SW,214,0.0,0.0,100,0.00,,OVC250,0.00,VWS V14.01,2013-05-09 03:37:00,
2013-05-08 23:42:00,61.3,61.3,30.01,SW,214,0.0,0.0,100,0.00,,OVC250,0.00,VWS V14.01,2013-05-09 03:42:00,
2013-05-08 23:47:00,61.2,61.2,30.01,SW,214,0.0,0.0,100,0.00,,OVC250,0.00,VWS V14.01,2013-05-09 03:47:00,
2013-05-08 23:52:00,61.2,61.2,30.01,SW,214,0.0,0.0,100,0.00,,OVC250,0.00,VWS V14.01,2013-05-09 03:52:00,
2013-05-08 23:57:00,61.2,61.2,30.01,SW,214,0.0,0.0,100,0.00,,OVC250,0.00,VWS V14.01,2013-05-09 03:57:00,